カタログに戻る

KOSEN 1

KOSEN-1

運用中アマチュア無線SSO
NORAD 49402·PAYLOAD·🇯🇵 Japan

打ち上げ Nov 9, 2021 から Uchinoura Space Center

Loading…

次のパス (今後24時間)

TLE

最新Source: AMSAT

元期: Sep 14, 2026, 08:52 UTC

1 49402U 21102H   26257.36975564  .00005255  00000-0  19518-3 0  9996
2 49402  97.3104 297.8260 0011664 248.4961 111.5035 15.27925970267638

AllMySatでKOSEN 1をリアルタイム追跡

Download on the App Store